www.pogodaiklimat.ru

Погода и климат >> Архив погоды >> Канада >> Нунавут >> Остров Хат


ПОГОДА на Острове Хат

  • Прогноз погоды на Острове Хат
  • Монитор погоды на Острове Хат

АРХИВ ПОГОДЫ на Острове Хат

Время (UTC), дата Ветер
(напр.,м/с)
 
Видим.   Явления Облачность Т
(С)
Тd
(С)
f
(%)
Тe
(С)
Тes
(С)
Комфортность P
(гПа)
Po
(гПа)
Тmin
(С)
Tmax
(С)
R
(мм)
R24
(мм)
S
(см)
18 18.05 ЮВ 3 н/о 10/10 100 м
[]
-7.3 -8.2 93 -13 -13 1034.6 1029.7
21 18.05 Ю 4 н/о 10/10 100 м
[]
-6.6 -8.1 89 -13 -13 1034.5 1029.6
00 19.05 ЮВ 4 н/о 10/10 100 м
[]
-7.2 -7.9 95 -14 -14 1033.9 1029.0
03 19.05 ЮВ 6 н/о 10/10 100 м
[]
-8.0 -8.4 97 -17 -17 1033.2 1028.3
06 19.05 ЮВ 6 н/о 10/10 50 м
[]
-9.4 -10.0 95 -18 -18 1032.8 1027.9 -9.5 -6.1
09 19.05 ЮВ 6 н/о 10/10 50 м
[]
-11.9 -12.8 93 -21 -21 1032.0 1027.1
12 19.05 В 6 н/о ясно -11.3 -12.3 92 -20 -19 1032.4 1027.5
15 19.05 ЮВ 7 н/о ясно -8.7 -9.4 95 -18 -16 1031.3 1026.4
18 19.05 ЮВ 7 н/о ясно -4.5 -6.7 85 -13 -9 1030.3 1025.5
21 19.05 ЮВ 8 н/о ясно -2.8 -5.6 81 -11 -9 1029.1 1024.3
00 20.05 ЮВ 6 н/о 10/0
[]
-2.8 -4.9 85 -10 -10 1027.8 1023.0
03 20.05 ЮВ 6 н/о 10/0
[]
-5.4 -6.2 94 -13 -13 1026.6 1021.8
06 20.05 ЮВ 6 н/о 10/0 2000 м
[]
-7.3 -7.9 95 -15 -15 1026.0 1021.2 -12.4 -2.5
09 20.05 В 5 н/о 10/0 2000 м
[]
-8.2 -8.8 95 -16 -16 1024.8 1020.0
12 20.05 ЮВ 5 н/о 10/10 1000 м
[]
-6.9 -7.7 94 -14 -14 1024.4 1019.6
15 20.05 В 7 н/о 10/10 1500 м
[]
-5.2 -6.8 88 -13 -13 1024.2 1019.4
18 20.05 СВ 9 н/о 9/9 100 м
[]
-4.1 -5.9 87 -13 -13 1023.9 1019.1
21 20.05 СВ 9 н/о 10/10 200 м
[]
-4.3 -6.1 87 -14 -14 1024.6 1019.8
00 21.05 СВ 10 н/о 10/10 200 м
[]
-6.5 -7.7 91 -16 -16 1025.3 1020.5
03 21.05 С 9 н/о 10/10 200 м
[]
-9.3 -10.4 92 -19 -19 1026.1 1021.3
06 21.05 С 9 н/о 10/10 300 м
[]
-11.5 -12.9 89 -22 -22 1026.4 1021.6 -11.5 -3.6
09 21.05 С 10 н/о 10/10 100 м
[]
-11.5 -12.5 92 -23 -23 1027.2 1022.4
12 21.05 С 10 н/о 10/10 300 м
[]
-10.6 -12.1 89 -21 -21 1027.9 1023.1
15 21.05 С 10 н/о 10/10 100 м
[]
-9.5 -10.9 90 -20 -20 1028.4 1023.6
18 21.05 СЗ 11 н/о 10/10 200 м
[]
-6.8 -8.7 86 -17 -17 1028.4 1023.6
21 21.05 С 11 н/о 9/9 300 м
[]
-4.4 -7.3 80 -14 -14 1029.0 1024.2
00 22.05 С 10 н/о 10/10 300 м
[]
-6.0 -7.4 90 -16 -16 1030.0 1025.2
03 22.05 С 10 н/о 10/10 200 м
[]
-7.2 -8.1 93 -17 -17 1030.6 1025.8
06 22.05 С 8 н/о 10/10 200 м
[]
-8.3 -8.9 95 -18 -18 1031.0 1026.2 -11.8 -4.3
09 22.05 С 9 н/о 10/10 300 м
[]
-8.2 -8.7 96 -18 -18 1031.5 1026.7
12 22.05 С 9 н/о 10/10 300 м
[]
-7.7 -8.3 95 -18 -18 1032.4 1027.6
15 22.05 СЗ 8 н/о 10/10 200 м
[]
-8.4 -9.5 92 -18 -18 1032.6 1027.7
18 22.05 СЗ 9 н/о 10/10 600 м
[]
-5.7 -7.2 89 -15 -15 1031.9 1027.1
21 22.05 СЗ 9 н/о 10/10 1000 м
[]
-4.8 -6.6 87 -14 -14 1031.2 1026.4
00 23.05 С 9 н/о 10/10 600 м
[]
-5.5 -6.7 91 -15 -15 1030.8 1026.0
03 23.05 С 9 н/о ясно -7.8 -8.7 93 -18 -18 1029.6 1024.8
06 23.05 СЗ 9 н/о 10/10 50 м
[]
-11.0 -11.8 94 -22 -22 1029.1 1024.3 -11.0 -4.1
09 23.05 СЗ 9 н/о 10/10 50 м
[]
-12.2 -13.1 93 -23 -23 1028.0 1023.2
12 23.05 СЗ 9 н/о 10/10 300 м
[]
-10.5 -11.3 94 -21 -21 1027.8 1023.0
15 23.05 СЗ 10 н/о 10/10 1500 м
[]
-8.7 -9.7 92 -19 -19 1026.8 1022.0
18 23.05 СЗ 11 н/о 10/10 1500 м
[]
-6.5 -8.0 89 -17 -17 1025.8 1021.0
21 23.05 СЗ 11 н/о 10/10 1500 м
[]
-5.2 -6.8 88 -15 -15 1025.1 1020.3
00 24.05 СЗ 10 н/о 10/10 1500 м
[]
-4.9 -6.2 91 -15 -15 1024.4 1019.6
03 24.05 СЗ 9 н/о ясно -7.8 -8.7 93 -18 -18 1023.9 1019.1
06 24.05 СЗ 8 н/о ясно -11.4 -12.1 95 -21 -21 1025.8 1021.0 -13.1 -4.2
09 24.05 СЗ 8 н/о ясно -12.3 -13.2 93 -22 -22 1023.7 1018.9
12 24.05 СЗ 8 н/о ясно -12.2 -13.2 92 -22 -22 1023.9 1019.1
15 24.05 СЗ 9 н/о 10/10 50 м
[]
-10.7 -11.8 92 -21 -21 1023.8 1019.0
18 24.05 СЗ 10 н/о 3/3 50 м
[]
-8.5 -10.0 89 -19 -19 1023.2 1018.4
21 24.05 СЗ 11 н/о ясно -6.7 -8.4 88 -17 -17 1022.3 1017.5
00 25.05 СЗ 9 н/о ясно -6.1 -7.7 88 -16 -15 1022.0 1017.2
03 25.05 СЗ 10 н/о ясно -8.0 -9.0 92 -18 -18 1021.3 1016.5
06 25.05 СЗ 9 н/о ясно -11.5 -12.2 95 -22 -22 1021.5 1016.7 -12.5 -6.1
09 25.05 З 9 н/о ясно -13.7 -14.6 93 -25 -25 1021.7 1016.9
12 25.05 З 9 н/о 9/9 100 м
[]
-13.1 -14.3 91 -24 -24 1018.9 1014.1
15 25.05 З 9 н/о ясно -10.2 -11.7 89 -21 -20 1018.2 1013.4

 

Местоположение метеостанции Остров Хат (Нунавут, Канада): широта 68.32 долгота -100.00 высота над уровнем моря 36 м.

В архиве по умолчанию представлена погода на Острове Хат за последнюю неделю. Архивные данные за месяц целиком и за предыдущие месяцы, начиная с января 2011 года, Вы можете получить, выбрав интересующий диапазон дат из раскрывающегося списка и нажав кнопку "Ввод!".


*Определитесь, кто Вы:
робот инопланетянин человек

Внимание! Время в таблицах - всемирное. Для получения местного времени необходимо прибавить поправку, которая равна -6 ч.

Смотрите также архив погоды в соседних городах и на ближайших метеорологических станциях:

Погода в Джойа Хейвен (Нунавут, Канада) (173 км)
Погода в Кеймбридж-Бее (Нунавут, Канада) (223 км)
Погода в Кембридж Бэй (Нунавут, Канада) (223 км)
Погода в Шеперд-Бее (Нунавут, Канада) (273 км)
Погода в Талойоаке (Нунавут, Канада) (291 км)
Погода в Глеичене (Альберта, Канада) (291 км)
Погода на Мысе Пил-Вест (Нунавут, Канада) (325 км)
Погода на Озере Робертсон (Нунавут, Канада) (373 км)
Погода в Кугааруке (Нунавут, Канада) (417 км)
Погода в Кам Фор (Нунавут, Канада) (421 км)

Пояснения к столбцам:

Ветер - указаны скорость ветра в м/с - средняя за 10 мин, порывы в срок и между сроками (в фигурных скобках) и направление, откуда дует ветер: С - северный, СВ - северо-восточный, В - восточный, ЮВ - юго-восточный, Ю - южный, ЮЗ - юго-западный, З - западный, СЗ - северо-западный.
Видимость - горизонтальная дальность видимости в метрах или километрах. При видимости от 1 до 10 км при отсутствии осадков обычно наблюдается дымка, при ухудшении видимости до 1 км и менее - туман. В сухую погоду видимость может ухудшаться дымом, пылью или мглою.
Явления - указаны атмосферные явления, наблюдавшиеся в срок или в последний час перед сроком; фигурными скобками обозначены явления, наблюдавшиеся между сроками (за 1-3 часа до срока); квадратными скобками обозначены град или гололедные отложения с указанием их диаметра в мм.
Облачность - указаны через наклонную черту общая и нижняя облачность в баллах и высота нижней границы облаков в метрах; квадратными скобками обозначены формы облаков: Ci - перистые, Cs - перисто-слоистые, Cc - перисто-кучевые, Ac - высококучевые, As - высокослоистые, Sc - слоисто-кучевые, Ns - слоисто-дождевые, Cu - кучевые, Cb - кучево-дождевые. Подробнее классификацию облаков см. в Атласе облаков (PDF).
T - Температура воздуха - температура, измеренная на высоте 2 м над землей.
Td - Температура точки росы - температура, при понижении до которой содержащийся в воздухе водяной пар достигнет насыщения.
f - Относительная влажность воздуха - влажноcть воздуха, измеренная на высоте 2 м над землей.
Te - Эффективная температура - температура, которую ощущает одетый по сезону человек в тени. Характеристика душности погоды. При расчете учитывается влияние влажности воздуха и скорости ветра на теплоощущения человека.
Tes - Эффективная температура на солнце - температура, которую ощущает человек, с поправкой на солнечный нагрев. Характеристика знойности погоды. Зависит от высоты солнца над горизонтом, облачности и скорости ветра. Ночью, в пасмурную погоду, а также при ветре 12 м/с и более поправка равна нулю.
P - Атмосферное давление - приведенное к уровню моря атмосферное давление.
Po - Атмосферное давление - измеренное на уровне метеостанции атмосферное давление.
Tmin - Минимальная температура - минимум температуры воздуха на высоте 2 м над землей.
Tmax - Максимальная температура - максимум температуры воздуха на высоте 2 м над землей.
R - Количество осадков - Количество выпавших осадков за период времени, мм. При наведении курсора мыши на число - период времени, за который выпало указанное количество осадков.
R24 - Количество осадков - Количество выпавших осадков за 24 часа, мм.
S - Снежный покров - Высота снежного покрова, см. При наведении курсора мыши на число - состояние снежного покрова и степень покрытия местности в баллах.